This demonstration page uses our WeatherBlox Daily Observations layout. Learn more.

Left ArrowRight Arrow

39.92423, -83.80882

Hourly Observations for October 2, 2020

Temp ( °F °C ) Dew Point ( °F °C ) Humidity (%) Winds ( mph kmh ) Pressure ( in mb ) Visibility ( mi km ) Precip ( " mm )
12:56 am 00:56 Clear 43 6.1 42 5.6 97 97 WNW 6 9 30.09 1019 10 16.0934 0.01 0.254
1:56 am 01:56 Clear 43 6.1 43 6.1 100 100 WNW 8 13 30.09 1019 10 16.0934 0 0
2:56 am 02:56 Clear 42 5.6 42 5.6 100 100 WNW 7 11 30.09 1019 10 16.0934 0 0
3:56 am 03:56 Clear 41 5 41 5 100 100 WNW 7 11 30.1 1019 10 16.0934 0 0
4:56 am 04:56 Clear 40 4.4 40 4.4 100 100 WNW 6 9 30.1 1019 10 16.0934 0 0
5:33 am 05:33 Mostly Clear 39 4 39 4 100 100 WNW 6 9 30.13 1020 10 16.0934 0 0
5:52 am 05:52 Mostly Cloudy 41 5 41 5 100 100 NW 6 9 30.13 1020 10 16.0934 0 0
5:56 am 05:56 Mostly Cloudy 41 5 41 5 100 100 WNW 6 9 30.11 1020 10 16.0934 0 0
6:24 am 06:24 Cloudy with Mist and Fog 43 6 43 6 100 100 NW 5 7 30.14 1021 5 8.0467 0 0
6:41 am 06:41 Cloudy with Mist and Fog 43 6 43 6 100 100 NW 7 11 30.14 1021 1.75 2.816345 0 0
6:46 am 06:46 Cloudy with Mist and Fog 43 6 43 6 100 100 NW 7 11 30.14 1021 0.75 1.207005 0 0
6:56 am 06:56 Cloudy with Mist and Fog 42 5.6 42 5.6 100 100 NNW 7 11 30.12 1020 0.75 1.207005 0 0
7:15 am 07:15 Cloudy with Mist and Fog 43 6 43 6 100 100 NW 7 11 30.15 1021 1.25 2.011675 0 0
7:34 am 07:34 Cloudy with Mist and Fog 43 6 43 6 100 100 NW 7 11 30.15 1021 1 1.60934 0 0
7:56 am 07:56 Cloudy with Mist and Fog 42 5.6 42 5.6 100 100 NW 6 9 30.15 1021 1 1.60934 0 0
8:09 am 08:09 Cloudy with Mist and Fog 43 6 43 6 100 100 NW 7 11 30.16 1021 1.5 2.41401 0 0
8:26 am 08:26 Cloudy with Mist and Fog 43 6 43 6 100 100 NNW 8 13 30.17 1022 0.75 1.207005 0 0
8:31 am 08:31 Cloudy with Mist and Fog 43 6 43 6 100 100 NNW 9 15 30.17 1022 1.25 2.011675 0 0
8:42 am 08:42 Cloudy with Mist and Fog 43 6 43 6 100 100 WNW 5 7 30.18 1022 4 6.43736 0 0
8:51 am 08:51 Cloudy with Mist and Fog 43 6 43 6 100 100 VRB 3 6 30.18 1022 1.75 2.816345 0 0
8:52 am 08:52 Cloudy with Mist and Fog 43 6.1 43 6.1 100 100 W 5 7 30.17 1022 1.25 2.011675 0 0
8:55 am 08:55 Cloudy with Mist and Fog 43 6 43 6 100 100 WNW 5 7 30.18 1022 0.75 1.207005 0 0
9:10 am 09:10 Cloudy with Mist and Fog 43 6 43 6 100 100 NW 5 7 30.18 1022 1.25 2.011675 0 0
9:19 am 09:19 Cloudy with Mist and Fog 43 6 43 6 100 100 N 7 11 30.18 1022 3 4.82802 0 0
9:42 am 09:42 Cloudy with Mist and Fog 43 6 43 6 100 100 W 6 9 30.2 1023 2.5 4.02335 0 0
9:49 am 09:49 Cloudy with Mist and Fog 43 6 43 6 100 100 WNW 5 7 30.2 1023 6 9.65604 0 0
9:56 am 09:56 Cloudy 44 6.7 44 6.7 100 100 W 6 9 30.19 1022 9 14.48406 0 0
10:14 am 10:14 Cloudy 45 7 45 7 100 100 WNW 6 9 30.19 1022 10 16.0934 0 0
10:28 am 10:28 Cloudy 46 8 45 7 93 93 W 6 9 30.19 1022 10 16.0934 0 0
10:56 am 10:56 Cloudy 48 8.9 44 6.7 86 86 W 5 7 30.19 1022 10 16.0934 0 0
11:10 am 11:10 Mostly Cloudy 50 10 45 7 82 82 VRB 3 6 30.18 1022 10 16.0934 0 0
11:25 am 11:25 Mostly Sunny 52 11 45 7 77 77 VRB 5 7 30.18 1022 10 16.0934 0 0
11:43 am 11:43 Mostly Cloudy 52 11 45 7 77 77 VRB 6 9 30.19 1022 10 16.0934 0.01 0.254
11:56 am 11:56 Partly Cloudy 54 12.2 43 6.1 67 67 NW 8 13 30.19 1022 10 16.0934 0.01 0.254
12:56 pm 12:56 Mostly Sunny 55 12.8 42 5.6 62 62 W 7 11 30.19 1022 10 16.0934 0 0
1:56 pm 13:56 Mostly Cloudy 57 13.9 41 5 55 55 NNW 7 11 30.17 1022 10 16.0934 0 0
2:56 pm 14:56 Mostly Cloudy 57 13.9 40 4.4 53 53 WNW 8 13 30.15 1021 10 16.0934 0 0
3:56 pm 15:56 Cloudy 59 15 38 3.3 46 46 WNW 7 11 30.15 1021 10 16.0934 0 0
4:56 pm 16:56 Mostly Cloudy 58 14.4 39 3.9 50 50 WNW 6 9 30.14 1021 10 16.0934 0 0
5:56 pm 17:56 Cloudy 56 13.3 40 4.4 55 55 NNW 5 7 30.15 1021 10 16.0934 0.01 0.254
6:56 pm 18:56 Cloudy 54 12.2 45 7.2 72 72 Calm 30.16 1021 10 16.0934 0 0
7:56 pm 19:56 Partly Cloudy 52 11.1 42 5.6 69 69 NW 5 7 30.17 1022 10 16.0934 0 0
8:56 pm 20:56 Clear 44 6.7 43 6.1 96 96 Calm 30.18 1022 10 16.0934 0 0
9:56 pm 21:56 Mostly Clear 43 6.1 43 6.1 100 100 Calm 30.19 1023 10 16.0934 0 0
10:56 pm 22:56 Cloudy 45 7.2 45 7.2 100 100 Calm 30.21 1023 10 16.0934 0 0
11:56 pm 23:56 Clear 43 6.1 43 6.1 100 100 Calm 30.21 1023 10 16.0934 0 0

Powered by AerisWeather